Location: Sweet Grass
(48.9965°N, 111.9649°W)
Time: 02:43:23
(UTC+00:00)

Envisat - Pass Details

Date: 09 December 2022
Orbit: 763 x 765 km, 98.2° (Epoch: 28 January)

Event Time Altitude Azimuth Distance (km) Brightness Sun altitude
Rises 00:12:35 0° 215° (SW) 3,222 7.5 -6.7°
Reaches altitude 10° 00:15:56 10° 239° (WSW) 2,302 7.3 -7.2°
Maximum altitude 00:18:45 15° 273° (W) 1,989 6.2 -7.6°
Drops below altitude 10° 00:21:35 10° 307° (NW) 2,312 5.9 -8.0°
Sets 00:24:59 0° 331° (NNW) 3,245 6.3 -8.5°
